{"data":{"norad_id":60194,"epoch":"2026-09-20T06:18:53.193888Z","epoch_age_seconds":201981,"freshness":"STALE","line1":"1 60194U 24124M   26263.26311567 -.00000111  00000+0  39382-5 0  9996","line2":"2 60194  53.1585 282.1048 0001059  60.4829 299.6294 15.69710639128287","mean_motion":15.69710639,"eccentricity":0.0001059,"inclination_deg":53.1585,"raan_deg":282.1048,"arg_perigee_deg":60.4829,"mean_anomaly_deg":299.6294,"bstar":3.9382e-6,"rev_number":12828,"period_min":91.736652872364,"perigee_km":359.01138226947,"apogee_km":360.43846142452,"semimajor_km":6737.861921847,"source":"CELESTRAK","updated_at":"2026-09-22T09:00:49.183922Z"}}